Regional Weather Roundup
Issued by NWS

Home | Current Version | Previous Version | Text Only | Print | Product List | Glossary On
Versions: 1 2 3 4 5 6 7 8 9 10 11 12 13 14 15 16 17 18 19 20 21 22 23 24 25 26 27 28 29 30 31 32 33 34 35 36 37 38 39 40 41 42 43 44 45 46 47 48 49 50
160
ASUS43 KTOP 250608
RWRKS

WEATHER ROUNDUP FOR KANSAS
NATIONAL WEATHER SERVICE GOODLAND KS
100 AM CDT MON SEP 25 2017

NOTE:  "FAIR" INDICATES FEW OR NO CLOUDS BELOW 12,000 FEET WITH NO
SIGNIFICANT WEATHER AND/OR OBSTRUCTIONS TO VISIBILITY.

KSZ001>006-013>018-027>032-041>047-250700-
NORTHWEST KANSAS

CITY           SKY/WX    TMP DP  RH WIND       PRES   REMARKS
GOODLAND       RAIN      53  52  96 NW13      29.99R
6HR MIN TEMP:  52; 6HR MAX TEMP:  53; 6HR PCP:  0.25;

HAYS           CLOUDY    64  62  93 NE5       29.89S
HILL CITY      LGT RAIN  58  57  97 NE9       29.93R
6HR MIN TEMP:  58; 6HR MAX TEMP:  63; 6HR PCP:  0.46;

RUSSELL        CLOUDY    73  60  63 S7        29.87R
6HR MIN TEMP:  68; 6HR MAX TEMP:  74;

$$

KSZ061>065-074>080-084>089-250700-
SOUTHWEST KANSAS

CITY           SKY/WX    TMP DP  RH WIND       PRES   REMARKS
DODGE CITY     PTCLDY    69  64  84 S15       29.90S
6HR MIN TEMP:  69; 6HR MAX TEMP:  78;

ELKHART          N/A     66  67 100 S17         N/A
GARDEN CITY    MOCLDY    66  64  93 S12       29.89S
6HR MIN TEMP:  66; 6HR MAX TEMP:  73;

GREAT BEND     CLOUDY    74  62  66 S15       29.88
LIBERAL        CLOUDY    67  65  93 S17       29.90S
PRATT          CLOUDY    73  61  67 S14       29.91S
6HR MIN TEMP:  69; 6HR MAX TEMP:  81; 6HR PCP:  0.01;

$$

KSZ066>073-081>083-090>101-250700-
SOUTHEAST KANSAS

CITY           SKY/WX    TMP DP  RH WIND       PRES   REMARKS
CHANUTE        PTCLDY    72  67  84 S7        29.93S
6HR MIN TEMP:  72; 6HR MAX TEMP:  81;

COFFEYVILLE    PTCLDY    73  67  81 SE3       29.92F
6HR MIN TEMP:  71; 6HR MAX TEMP:  83;

HUTCHINSON     CLEAR     73  65  75 S9        29.89S
6HR MIN TEMP:  72; 6HR MAX TEMP:  83;

MEDICINE LODGE   N/A     73  62  68 SE8       29.89F
NEWTON         CLEAR     70  63  78 SE9       29.91F
PARSONS        CLOUDY    70  67  90 CALM      29.94S
6HR MIN TEMP:  70; 6HR MAX TEMP:  75;

WICHITA INTL   MOCLDY    73  66  78 S10       29.89F
6HR MIN TEMP:  73; 6HR MAX TEMP:  84; 6HR PCP:  0.02;

WICHITA JABRA  CLEAR     72  65  78 S8        29.90F
6HR MIN TEMP:  72; 6HR MAX TEMP:  83;

WICHITA MCCONL PTCLDY    74  63  69 S10       29.90S
WINFIELD       PTCLDY    73  66  78 SE7       29.91F
6HR MIN TEMP:  73; 6HR MAX TEMP:  83;

$$

KSZ007>012-019>026-033>040-048>060-102>105-250700-
NORTHEAST KANSAS

CITY           SKY/WX    TMP DP  RH WIND       PRES   REMARKS
CONCORDIA      CLEAR     65  65 100 E6        29.89F
6HR MIN TEMP:  65; 6HR MAX TEMP:  70; 6HR PCP:  0.89;

EMPORIA        CLEAR     71  66  84 S8        29.91F
6HR MIN TEMP:  70; 6HR MAX TEMP:  81;

LAWRENCE       MOCLDY    72  67  84 E5        29.91F
6HR MIN TEMP:  71; 6HR MAX TEMP:  83;

MANHATTAN      CLEAR     72  65  78 CALM      29.89S
6HR MIN TEMP:  71; 6HR MAX TEMP:  86;

MARYSVILLE     CLOUDY    68  68 100 CALM      29.90S
OLATHE IND     PTCLDY    72  65  78 SE8       29.93F
6HR MIN TEMP:  72; 6HR MAX TEMP:  81;

OLATHE EXE     PTCLDY    70  66  87 S6        29.93F
6HR MIN TEMP:  70; 6HR MAX TEMP:  80;

SALINA         CLEAR     72  66  81 SE7       29.88F
6HR MIN TEMP:  72; 6HR MAX TEMP:  87; 6HR PCP:  0.33;

TOPEKA BILLARD PTCLDY    75  68  78 SE8       29.90F
6HR MIN TEMP:  73; 6HR MAX TEMP:  82;

TOPEKA FORBES  PTCLDY    74  68  81 SE7       29.91F
6HR MIN TEMP:  73; 6HR MAX TEMP:  83;

$$




USA.gov is the U.S. government's official web portal to all federal, state and local government web resources and services.